Skip Page Navigation
NASA JPL Caltech
NASA Logo - Jet Propulsion Laboratory + View the NASA Portal
+ Near-Earth Object (NEO) Program
Search JPL
JPL Home Earth Solar System Stars & Galaxies Technology
JPL Solar System Dynamics
BODIES ORBITS EPHEMERIDES TOOLS PHYSICAL DATA DISCOVERY FAQ SITE MAP
JPL Small-Body Database Browser
Search: [ help ]  
23116 Streich (2000 AW22)
Classification: Main-belt Asteroid          SPK-ID: 2023116
Ephemeris | Orbit Diagram | Orbital Elements | Physical Parameters | Discovery Circumstances ]

[ show orbit diagram ]
Orbital Elements at Epoch 2456400.5 (2013-Apr-18.0) TDB
Reference: MPO257030 (heliocentric ecliptic J2000)
 Element Value Uncertainty (1-sigma)   Units 
e 0.1512104 n/a  
a 2.5870758 n/a AU
q 2.1958830 n/a AU
i 6.36893 n/a deg
node 283.72042 n/a deg
peri 295.47522 n/a deg
M 323.97085 n/a deg
tp 2456552.6120730
(2013-Sep-17.11207300)
n/a JED
period 1519.8900410
4.16
n/a
n/a
d
yr
n 0.23685924 n/a deg/d
Q 2.9782686 n/a AU
  Orbit Determination Parameters
   # obs. used (total)      582  
   first obs. used      1976-??-??  
   last obs. used      2013-03-21  
   # oppositions      18  
   planetary ephem.      DE403  
   condition code      0  
   fit RMS      0.54  
   data source      MPC:mpn  
   producer      MPCLINUX  

Additional Information
 T_jup = 3.397 

Ephemeris | Orbit Diagram | Orbital Elements | Physical Parameters | Discovery Circumstances ]

Physical Parameter Table
Parameter Symbol Value Units Sigma Reference Notes
absolute magnitude H 14.5 mag n/a PDS3 (MPO 10215)  

23116 Streich           Discovered 2000 Jan. 3 by the Lincoln Laboratory Near-Earth Asteroid Research Team in Socorro.
Philip Vidal Streich (b. 1991) was awarded first place and Best in Category in the 2007 Intel International Science and Engineering Fair for his chemistry project. He also received the Intel Foundation Young Scientist Award. He is homeschooled in Platteville, Wisconsin, U.S.A.
NOTE: some special characters may not display properly (any characters within {} are an attempt to place the proper accent above a character)
Reference: 20070828/MPCPages.arcLast Updated: 2007-08-30

Alternate Designations
 2000 AW22 = 1993 OV12 
Ephemeris | Orbit Diagram | Orbital Elements | Physical Parameters | Discovery Circumstances ]
ABOUT SSD CREDITS/AWARDS PRIVACY/COPYRIGHT GLOSSARY LINKS
FirstGov 2013-May-25 03:12 UT
(server date/time)  
NASA Home Page
Site Manager:   Donald K. Yeomans
Webmaster  Alan B. Chamberlin